Location: Boncourt
(49.6160°N, 3.9448°E)
Time: 07:14:16
(UTC+00:00)

SKYMED 2 - Pass Details

Date: 09 February 2023
Orbit: 621 x 623 km, 97.9° (Epoch: 22 March)

Event Time Altitude Azimuth Distance (km) Brightness Sun altitude
Rises 18:05:51 0° 12° (NNE) 2,919 6.8 -12.2°
Reaches altitude 10° 18:08:04 10° 12° (NNE) 2,007 6.0 -12.6°
Maximum altitude 18:12:26 81° 286° (WNW) 637 3.7 -13.3°
Drops below altitude 10° 18:16:46 10° 199° (SSW) 1,989 6.5 -14.0°
Sets 18:18:56 0° 198° (SSW) 2,891 7.3 -14.3°
